Home > Time Zones > World Clock > Weather > China > Hefei > Past weeks

Flag for China Weather past 2 weeks in Hefei, Anhui, China

Now
73 °F

Light rain. Fog.


Feels Like: 70 °F
Forecast: 67 / 78 °F
Wind: 8 mph from North

Location: Hefei Airport

Current Time: Aug 31, 2014 at 7:10:43 PM

Latest Report: Aug 31, 2014 at 6:00 PM


Visibility: 3 mi

Pressure: 29.77 "Hg

Humidity: 94%

Dew point: 72 °F

Location of HefeiLocation

Historic Weather in Hefei — Graph

°F

Hefei temperature yesterday

Maximum temperature yesterday: 82 °F (at 1:00 PM)
Minimum temperature yesterday: 72 °F (at 12:00 AM)
Average temperature yesterday: 76 °F

Past Weeks' High & Low Weather Summary

 TemperatureHumidityPressure
High91 °F (Aug 23, 2:00 PM)100% (Aug 18, 2:00 AM)30.01 "Hg (Aug 18, 2:00 AM)
Low68 °F (Aug 19, 3:00 AM)52% (Aug 21, 4:00 PM)29.65 "Hg (Aug 24, 4:00 AM)
Average76 °F86%29.85 "Hg
* Reported Aug 16 6:00 PM — Aug 31 6:00 PM, Hefei, Weather by CustomWeather, © 2014

Note: Actual official high and low records may vary slightly from our data, if they occured in-between our weather recording intervals... More about our weather records

Advertising

Hefei weather history for previous 24 hours

 ConditionsComfort  
Time TempWeatherWind HumidityBarometerVisibility
6:00 PM
Aug 31
73 °FLight rain. Fog.8 mph94%29.77 "Hg3 mi
5:00 PM75 °FLight rain. Fog.8 mph94%29.77 "Hg2 mi
4:00 PM75 °FLight rain. Fog.8 mph94%29.74 "Hg2 mi
3:00 PM75 °FFog.6 mph94%29.74 "Hg2 mi
2:00 PM77 °FLight rain. Fog.6 mph89%29.77 "Hg2 mi
1:00 PM77 °FFog.8 mph94%29.77 "Hg2 mi
12:00 PM77 °FFog.3 mph94%29.80 "Hg2 mi
11:00 AM77 °FFog.3 mph89%29.80 "Hg1 mi
10:00 AM75 °FLight rain. Fog.8 mph94%29.80 "Hg1 mi
9:00 AM73 °FSprinkles. Fog.8 mph100%29.80 "Hg1 mi
8:00 AM73 °FLight rain. Fog.6 mph94%29.80 "Hg1 mi
7:00 AM73 °FLight rain. Fog.8 mph94%29.77 "Hg1 mi
6:00 AM73 °FLots of rain. Fog.8 mph94%29.80 "Hg1 mi
5:00 AM73 °FLight rain. Fog.8 mph94%29.77 "Hg1 mi
4:00 AM72 °FLight rain. Fog.3 mph94%29.77 "Hg2 mi
3:00 AM73 °FLight rain. Fog.8 mph89%29.77 "Hg2 mi
2:00 AM73 °FFog.6 mph89%29.77 "Hg2 mi
1:00 AM73 °FFog.8 mph89%29.80 "Hg2 mi
12:00 AM75 °FLight rain. Fog.8 mph89%29.83 "Hg2 mi
11:00 PM
Aug 30
73 °FFog.8 mph94%29.83 "Hg1 mi
10:00 PM75 °FFog.6 mph89%29.86 "Hg2 mi
9:00 PM75 °FFog.6 mph89%29.86 "Hg2 mi
8:00 PM75 °FFog.6 mph89%29.86 "Hg2 mi
7:00 PM77 °FFog.6 mph83%29.86 "Hg2 mi
Weather by CustomWeather, © 2014

See weather overviewHow to use our weather pages